| time (UTC) | temp F | wind direction | speed knots | gust knots | rain 1hr in | rain 24hr in | rain mn in | humidity % | barometer mb |
| 20260504231636 | 56 | 310 | 0.0 | 0.9 | 0.00 | 0.00 | 0.00 | 68 | 1007.2 |
| 20260504231132 | 57 | 310 | 0.0 | 0.0 | 0.00 | 0.00 | 0.00 | 67 | 1007.1 |
| 20260504230629 | 57 | 311 | 0.0 | 0.0 | 0.00 | 0.00 | 0.00 | 67 | 1006.7 |
| 20260504230128 | 58 | 311 | 0.0 | 0.0 | 0.00 | 0.00 | 0.00 | 62 | 1007.0 |
| 20260504225626 | 58 | 311 | 0.0 | 0.9 | 0.00 | 0.00 | 0.00 | 61 | 1006.8 |
| 20260504225121 | 59 | 311 | 0.9 | 0.9 | 0.00 | 0.00 | 0.00 | 60 | 1006.7 |
| 20260504224618 | 59 | 346 | 1.7 | 2.6 | 0.00 | 0.00 | 0.00 | 59 | 1006.6 |
| 20260504224115 | 59 | 279 | 0.0 | 0.9 | 0.00 | 0.00 | 0.00 | 60 | 1006.5 |
| 20260504223612 | 59 | 272 | 0.0 | 0.9 | 0.00 | 0.00 | 0.00 | 59 | 1006.4 |
| 20260504223108 | 59 | 255 | 1.7 | 1.7 | 0.00 | 0.00 | 0.00 | 58 | 1006.7 |
| 20260504222605 | 59 | 288 | 0.9 | 1.7 | 0.00 | 0.00 | 0.00 | 59 | 1006.4 |
| 20260504222102 | 59 | 295 | 1.7 | 1.7 | 0.00 | 0.00 | 0.00 | 59 | 1006.1 |
| 20260504221559 | 59 | 235 | 3.5 | 4.3 | 0.00 | 0.00 | 0.00 | 59 | 1006.6 |
| 20260504221056 | 59 | 305 | 0.0 | 0.9 | 0.00 | 0.00 | 0.00 | 60 | 1006.6 |
| 20260504220552 | 59 | 227 | 1.7 | 1.7 | 0.00 | 0.00 | 0.00 | 60 | 1006.6 |
| 20260504220050 | 59 | 195 | 1.7 | 4.3 | 0.00 | 0.00 | 0.00 | 60 | 1006.6 |
| 20260504215546 | 60 | 279 | 0.9 | 1.7 | 0.00 | 0.00 | 0.00 | 59 | 1006.3 |
| 20260504215044 | 60 | 311 | 0.9 | 1.7 | 0.00 | 0.00 | 0.00 | 59 | 1006.4 |
| 20260504214539 | 59 | 201 | 0.9 | 1.7 | 0.00 | 0.00 | 0.00 | 60 | 1006.5 |
| 20260504214036 | 59 | 248 | 0.9 | 1.7 | 0.00 | 0.00 | 0.00 | 60 | 1006.4 |
| 20260504213532 | 59 | 101 | 0.0 | 1.7 | 0.00 | 0.00 | 0.00 | 60 | 1006.4 |
| 20260504213030 | 59 | 143 | 0.0 | 0.9 | 0.00 | 0.00 | 0.00 | 60 | 1006.2 |
| 20260504212526 | 60 | 344 | 0.0 | 1.7 | 0.00 | 0.00 | 0.00 | 59 | 1006.3 |
| 20260504212023 | 60 | 214 | 2.6 | 2.6 | 0.00 | 0.00 | 0.00 | 58 | 1006.1 |
| 20260504211520 | 60 | 274 | 0.9 | 2.6 | 0.00 | 0.00 | 0.00 | 57 | 1005.9 |
| 20260504211017 | 60 | 231 | 3.5 | 5.2 | 0.00 | 0.00 | 0.00 | 56 | 1006.0 |
| 20260504210514 | 60 | 278 | 2.6 | 6.1 | 0.00 | 0.00 | 0.00 | 57 | 1006.0 |
| 20260504210011 | 61 | 78 | 0.0 | 1.7 | 0.00 | 0.00 | 0.00 | 58 | 1006.0 |
| 20260504205509 | 61 | 298 | 1.7 | 4.3 | 0.00 | 0.00 | 0.00 | 56 | 1005.8 |
| 20260504205006 | 61 | 18 | 3.5 | 5.2 | 0.00 | 0.00 | 0.00 | 55 | 1006.1 |
| 20260504204504 | 61 | 284 | 3.5 | 7.0 | 0.00 | 0.00 | 0.00 | 56 | 1005.9 |
| 20260504204003 | 61 | 272 | 0.9 | 1.7 | 0.00 | 0.00 | 0.00 | 57 | 1005.8 |
| 20260504203500 | 60 | 277 | 2.6 | 6.1 | 0.00 | 0.00 | 0.00 | 58 | 1005.6 |
| 20260504202956 | 60 | 282 | 5.2 | 7.0 | 0.00 | 0.00 | 0.00 | 58 | 1005.9 |
| 20260504202453 | 60 | 230 | 1.7 | 4.3 | 0.00 | 0.00 | 0.00 | 60 | 1005.8 |
| 20260504201950 | 60 | 288 | 4.3 | 6.1 | 0.00 | 0.00 | 0.00 | 59 | 1005.8 |
| 20260504201447 | 60 | 215 | 1.7 | 4.3 | 0.00 | 0.00 | 0.00 | 61 | 1005.7 |
| 20260504200945 | 60 | 29 | 0.0 | 1.7 | 0.00 | 0.00 | 0.00 | 63 | 1005.6 |
| 20260504200441 | 59 | 61 | 0.9 | 1.7 | 0.00 | 0.00 | 0.00 | 65 | 1005.8 |
| 20260504195938 | 59 | 17 | 1.7 | 4.3 | 0.00 | 0.00 | 0.00 | 64 | 1005.6 |
| 20260504195434 | 59 | 285 | 0.9 | 0.9 | 0.00 | 0.00 | 0.00 | 65 | 1005.6 |
| 20260504194930 | 58 | 268 | 4.3 | 6.1 | 0.00 | 0.00 | 0.00 | 64 | 1005.7 |
| 20260504194426 | 59 | 313 | 3.5 | 4.3 | 0.00 | 0.00 | 0.00 | 65 | 1005.7 |
| 20260504193923 | 58 | 7 | 0.9 | 2.6 | 0.00 | 0.00 | 0.00 | 67 | 1006.0 |
| 20260504193420 | 58 | 180 | 0.9 | 1.7 | 0.00 | 0.00 | 0.00 | 66 | 1006.1 |
| 20260504192919 | 57 | 5 | 0.9 | 1.7 | 0.00 | 0.00 | 0.00 | 68 | 1005.9 |
| 20260504192415 | 57 | 260 | 2.6 | 2.6 | 0.00 | 0.00 | 0.00 | 68 | 1005.7 |
| 20260504191914 | 56 | 54 | 0.9 | 0.9 | 0.00 | 0.00 | 0.00 | 69 | 1006.1 |
| 20260504191412 | 56 | 71 | 0.0 | 0.9 | 0.00 | 0.00 | 0.00 | 71 | 1006.0 |
| 20260504190907 | 55 | 122 | 0.9 | 1.7 | 0.00 | 0.00 | 0.00 | 70 | 1006.1 |
| 20260504190403 | 55 | 60 | 0.9 | 1.7 | 0.00 | 0.00 | 0.00 | 72 | 1006.1 |
| 20260504185900 | 55 | 197 | 2.6 | 2.6 | 0.00 | 0.00 | 0.00 | 68 | 1006.4 |
| 20260504185357 | 56 | 157 | 2.6 | 5.2 | 0.00 | 0.00 | 0.00 | 66 | 1006.4 |
| 20260504184853 | 56 | 312 | 0.9 | 1.7 | 0.00 | 0.00 | 0.00 | 69 | 1006.2 |
| 20260504184349 | 56 | 279 | 1.7 | 2.6 | 0.00 | 0.00 | 0.00 | 67 | 1006.4 |
| 20260504183845 | 56 | 253 | 2.6 | 2.6 | 0.00 | 0.00 | 0.00 | 67 | 1006.2 |
| 20260504183343 | 56 | 206 | 0.9 | 4.3 | 0.00 | 0.00 | 0.00 | 67 | 1006.1 |
| 20260504182840 | 56 | 268 | 0.9 | 1.7 | 0.00 | 0.00 | 0.00 | 67 | 1006.4 |
| 20260504182337 | 55 | 250 | 1.7 | 1.7 | 0.00 | 0.00 | 0.00 | 68 | 1006.4 |
| 20260504181834 | 55 | 250 | 2.6 | 2.6 | 0.00 | 0.00 | 0.00 | 68 | 1006.5 |
| 20260504181331 | 55 | 293 | 0.0 | 1.7 | 0.00 | 0.00 | 0.00 | 68 | 1006.4 |
| 20260504180830 | 54 | 38 | 0.9 | 1.7 | 0.00 | 0.00 | 0.00 | 70 | 1006.6 |
| 20260504180328 | 54 | 34 | 0.0 | 2.6 | 0.00 | 0.00 | 0.00 | 69 | 1006.6 |
| 20260504175826 | 54 | 185 | 0.0 | 0.9 | 0.00 | 0.00 | 0.00 | 69 | 1006.6 |
| 20260504175322 | 54 | 244 | 1.7 | 2.6 | 0.00 | 0.00 | 0.00 | 65 | 1006.6 |
| 20260504174821 | 54 | 157 | 0.9 | 0.9 | 0.00 | 0.00 | 0.00 | 66 | 1006.5 |
| 20260504174318 | 54 | 213 | 0.9 | 0.9 | 0.00 | 0.00 | 0.00 | 64 | 1006.4 |
| 20260504173815 | 54 | 245 | 0.9 | 1.7 | 0.00 | 0.00 | 0.00 | 66 | 1006.7 |
| 20260504173311 | 54 | 32 | 0.0 | 0.9 | 0.00 | 0.00 | 0.00 | 67 | 1006.5 |
| 20260504172809 | 53 | 356 | 0.0 | 0.9 | 0.00 | 0.00 | 0.00 | 66 | 1006.5 |
| 20260504172305 | 53 | 341 | 0.0 | 0.9 | 0.00 | 0.00 | 0.00 | 69 | 1006.3 |
| 20260504171801 | 53 | 7 | 0.0 | 0.9 | 0.00 | 0.00 | 0.00 | 71 | 1006.1 |
| 20260504171258 | 52 | 26 | 0.0 | 0.0 | 0.00 | 0.00 | 0.00 | 75 | 1006.1 |
| 20260504170755 | 52 | 105 | 0.0 | 0.9 | 0.00 | 0.00 | 0.00 | 73 | 1006.0 |
| 20260504170252 | 53 | 133 | 0.0 | 0.9 | 0.00 | 0.00 | 0.00 | 74 | 1005.9 |
| 20260504160211 | 58 | 245 | 1.7 | 2.6 | 0.00 | 0.00 | 0.00 | 50 | 1005.5 |
| 20260504151139 | 57 | 32 | 0.9 | 4.3 | 0.00 | 0.00 | 0.00 | 46 | 1006.3 |
| 20260504150636 | 57 | 258 | 0.9 | 1.7 | 0.00 | 0.00 | 0.00 | 46 | 1006.6 |
| 20260504150133 | 57 | 261 | 0.9 | 5.2 | 0.00 | 0.00 | 0.00 | 45 | 1006.4 |
| 20260504141101 | 55 | 119 | 0.9 | 2.6 | 0.00 | 0.00 | 0.00 | 49 | 1007.3 |
| 20260504140558 | 55 | 202 | 1.7 | 4.3 | 0.00 | 0.00 | 0.00 | 47 | 1007.4 |
| 20260504130522 | 51 | 272 | 1.7 | 4.3 | 0.00 | 0.00 | 0.00 | 52 | 1008.1 |
| 20260504110410 | 43 | 266 | 1.7 | 2.6 | 0.00 | 0.00 | 0.00 | 63 | 1008.2 |
| 20260504100326 | 41 | 227 | 0.0 | 2.6 | 0.00 | 0.00 | 0.00 | 68 | 1007.8 |
| 20260504081720 | 41 | 236 | 5.2 | 7.0 | 0.00 | 0.00 | 0.00 | 65 | 1007.0 |
| 20260504081216 | 41 | 272 | 2.6 | 4.3 | 0.00 | 0.00 | 0.00 | 65 | 1007.0 |
| 20260504080712 | 41 | 173 | 2.6 | 4.3 | 0.00 | 0.00 | 0.00 | 65 | 1007.1 |
| 20260504080209 | 41 | 312 | 0.9 | 4.3 | 0.00 | 0.00 | 0.00 | 65 | 1006.9 |
| 20260504070137 | 39 | 287 | 2.6 | 2.6 | 0.00 | 0.00 | 0.00 | 70 | 1006.7 |
| 20260504050525 | 40 | 301 | 2.6 | 2.6 | 0.00 | 0.00 | 0.00 | 71 | 1006.2 |
| 20260504050022 | 40 | 255 | 1.7 | 5.2 | 0.00 | 0.00 | 0.00 | 70 | 1006.0 |
| 20260504045519 | 39 | 245 | 1.7 | 1.7 | 0.00 | 0.00 | 0.00 | 71 | 1006.0 |
| 20260504045015 | 39 | 307 | 0.9 | 1.7 | 0.00 | 0.00 | 0.00 | 71 | 1006.1 |
| 20260504044512 | 40 | 289 | 1.7 | 4.3 | 0.00 | 0.00 | 0.00 | 70 | 1005.9 |
| 20260504044009 | 40 | 284 | 0.9 | 2.6 | 0.00 | 0.00 | 0.00 | 71 | 1005.9 |
| 20260504043506 | 40 | 241 | 1.7 | 4.3 | 0.00 | 0.00 | 0.00 | 70 | 1005.8 |
| 20260504043004 | 40 | 296 | 1.7 | 4.3 | 0.00 | 0.00 | 0.00 | 70 | 1005.8 |
| 20260504042500 | 40 | 286 | 1.7 | 1.7 | 0.00 | 0.00 | 0.00 | 69 | 1005.6 |
| 20260504041957 | 40 | 335 | 1.7 | 4.3 | 0.00 | 0.00 | 0.00 | 69 | 1005.7 |
| 20260504041453 | 40 | 239 | 0.9 | 2.6 | 0.00 | 0.00 | 0.00 | 71 | 1005.6 |
| 20260504040949 | 40 | 313 | 1.7 | 4.3 | 0.00 | 0.00 | 0.00 | 69 | 1005.7 |
| 20260504040447 | 40 | 259 | 1.7 | 1.7 | 0.00 | 0.00 | 0.00 | 70 | 1005.8 |
| 20260504035943 | 40 | 318 | 0.9 | 4.3 | 0.00 | 0.87 | 0.87 | 70 | 1005.4 |
| 20260504035441 | 40 | 299 | 0.9 | 1.7 | 0.00 | 0.87 | 0.87 | 71 | 1005.5 |
| 20260504034937 | 41 | 239 | 0.9 | 1.7 | 0.00 | 0.87 | 0.87 | 70 | 1005.4 |
| 20260504034435 | 41 | 278 | 1.7 | 1.7 | 0.00 | 0.87 | 0.87 | 71 | 1005.6 |
| 20260504033931 | 41 | 259 | 1.7 | 2.6 | 0.00 | 0.87 | 0.87 | 70 | 1005.6 |
| 20260504033429 | 41 | 283 | 0.9 | 2.6 | 0.00 | 0.87 | 0.87 | 70 | 1005.6 |
| 20260504032926 | 41 | 270 | 1.7 | 4.3 | 0.00 | 0.87 | 0.87 | 68 | 1005.4 |
| 20260504032423 | 41 | 262 | 1.7 | 4.3 | 0.00 | 0.87 | 0.87 | 69 | 1005.4 |
| 20260504031920 | 41 | 305 | 0.9 | 1.7 | 0.00 | 0.87 | 0.87 | 70 | 1005.5 |
| 20260504031417 | 41 | 256 | 0.9 | 2.6 | 0.00 | 0.87 | 0.87 | 70 | 1005.5 |
| 20260504030913 | 41 | 293 | 0.9 | 1.7 | 0.00 | 0.87 | 0.87 | 70 | 1005.4 |
| 20260504030410 | 41 | 297 | 0.9 | 1.7 | 0.00 | 0.87 | 0.87 | 71 | 1005.1 |
| 20260504025906 | 41 | 266 | 3.5 | 6.1 | 0.00 | 0.87 | 0.87 | 70 | 1005.3 |
| 20260504025404 | 41 | 236 | 1.7 | 2.6 | 0.00 | 0.87 | 0.87 | 69 | 1005.1 |
| 20260504024900 | 41 | 236 | 1.7 | 2.6 | 0.00 | 0.87 | 0.87 | 70 | 1005.1 |
| 20260504024356 | 41 | 292 | 2.6 | 4.3 | 0.00 | 0.87 | 0.87 | 70 | 1005.2 |
| 20260504023854 | 41 | 241 | 1.7 | 1.7 | 0.00 | 0.87 | 0.87 | 70 | 1005.2 |
| 20260504023350 | 42 | 319 | 1.7 | 2.6 | 0.00 | 0.87 | 0.87 | 69 | 1004.9 |
| 20260504022846 | 42 | 325 | 0.0 | 2.6 | 0.00 | 0.87 | 0.87 | 69 | 1005.0 |
| 20260504022343 | 42 | 296 | 2.6 | 2.6 | 0.00 | 0.87 | 0.87 | 69 | 1005.1 |
| 20260504021839 | 42 | 312 | 1.7 | 2.6 | 0.00 | 0.87 | 0.87 | 70 | 1005.0 |
| 20260504021337 | 42 | 234 | 2.6 | 4.3 | 0.00 | 0.87 | 0.87 | 69 | 1004.7 |
| 20260504020834 | 42 | 326 | 1.7 | 5.2 | 0.00 | 0.87 | 0.87 | 70 | 1004.7 |
| 20260504020330 | 42 | 319 | 2.6 | 5.2 | 0.00 | 0.87 | 0.87 | 69 | 1004.8 |
| 20260504015826 | 42 | 11 | 1.7 | 2.6 | 0.00 | 0.87 | 0.87 | 70 | 1004.8 |
| 20260504015323 | 42 | 339 | 0.9 | 4.3 | 0.00 | 0.87 | 0.87 | 72 | 1004.5 |
| 20260504014819 | 42 | 333 | 0.0 | 4.3 | 0.00 | 0.87 | 0.87 | 73 | 1004.5 |
| 20260504014315 | 43 | 339 | 0.9 | 1.7 | 0.00 | 0.87 | 0.87 | 72 | 1004.7 |
| 20260504013813 | 43 | 275 | 1.7 | 2.6 | 0.00 | 0.87 | 0.87 | 72 | 1004.5 |
| 20260504013311 | 43 | 345 | 1.7 | 4.3 | 0.00 | 0.87 | 0.87 | 71 | 1004.5 |
| 20260504012807 | 43 | 277 | 0.9 | 4.3 | 0.00 | 0.87 | 0.87 | 72 | 1004.3 |
| 20260504012305 | 43 | 306 | 4.3 | 5.2 | 0.00 | 0.87 | 0.87 | 72 | 1004.5 |
| 20260504011802 | 43 | 22 | 1.7 | 4.3 | 0.00 | 0.87 | 0.87 | 77 | 1004.4 |
| 20260504011259 | 43 | 348 | 1.7 | 1.7 | 0.00 | 0.87 | 0.87 | 80 | 1004.2 |
| 20260504010754 | 43 | 328 | 0.9 | 1.7 | 0.00 | 0.87 | 0.87 | 82 | 1004.1 |
| 20260504010250 | 43 | 248 | 2.6 | 2.6 | 0.00 | 0.87 | 0.87 | 85 | 1004.3 |
| 20260504005747 | 43 | 30 | 0.9 | 0.9 | 0.00 | 0.87 | 0.87 | 94 | 1004.0 |
| 20260504005244 | 42 | 309 | 0.9 | 1.7 | 0.00 | 0.87 | 0.87 | 97 | 1004.0 |
| 20260504004742 | 42 | 330 | 0.0 | 0.9 | 0.00 | 0.87 | 0.87 | 98 | 1003.9 |
| 20260504004239 | 42 | 288 | 1.7 | 1.7 | 0.00 | 0.87 | 0.87 | 99 | 1003.8 |
| 20260504003735 | 42 | 343 | 0.0 | 0.9 | 0.00 | 0.87 | 0.87 | 99 | 1003.9 |
| 20260504003232 | 43 | 357 | 0.0 | 0.9 | 0.00 | 0.87 | 0.87 | 99 | 1003.5 |
| 20260504002729 | 43 | 324 | 0.9 | 1.7 | 0.00 | 0.87 | 0.87 | 99 | 1003.6 |
| 20260504002226 | 43 | 15 | 0.0 | 0.9 | 0.00 | 0.87 | 0.87 | 98 | 1003.6 |
| 20260504001724 | 43 | 22 | 0.9 | 0.9 | 0.00 | 0.87 | 0.87 | 98 | 1003.4 |
| 20260504001220 | 43 | 4 | 0.9 | 2.6 | 0.00 | 0.87 | 0.87 | 97 | 1003.3 |
| 20260504000717 | 43 | 40 | 0.0 | 1.7 | 0.00 | 0.87 | 0.87 | 97 | 1003.5 |
| 20260504000214 | 43 | 304 | 0.9 | 2.6 | 0.00 | 0.87 | 0.87 | 98 | 1003.4 |
| 20260503235712 | 43 | 354 | 0.9 | 0.9 | 0.00 | 0.87 | 0.87 | 98 | 1003.3 |
| 20260503235209 | 43 | 340 | 0.9 | 1.7 | 0.00 | 0.87 | 0.87 | 99 | 1003.3 |
| 20260503234707 | 43 | 354 | 0.9 | 1.7 | 0.00 | 0.87 | 0.87 | 99 | 1003.3 |
| 20260503234205 | 43 | 318 | 0.9 | 4.3 | 0.00 | 0.87 | 0.87 | 99 | 1003.2 |
| 20260503233701 | 43 | 27 | 1.7 | 2.6 | 0.00 | 0.87 | 0.87 | 99 | 1003.2 |
| 20260503233157 | 43 | 312 | 1.7 | 1.7 | 0.00 | 0.87 | 0.87 | 99 | 1003.1 |
| 20260503232654 | 43 | 32 | 1.7 | 2.6 | 0.00 | 0.87 | 0.87 | 99 | 1003.0 |
| 20260503232151 | 43 | 38 | 3.5 | 6.1 | 0.00 | 0.87 | 0.87 | 99 | 1003.0 |